Curtin, Western Australia

6:14 PM AWST on October 01, 2016 (GMT +0800)
Curtin

Weather History for YCIN - October, 2013

Change the Weather History Date:

Sunday, October 20, 2013

  Actual Average Record
Temperature  
Mean Temperature 90 °F -  
Max Temperature 105 °F - - ()
Min Temperature 74 °F - - ()
Cooling Degree Days 24    
Growing Degree Days 40 (Base 50)    
Moisture  
Dew Point 65 °F    
Average Humidity 49    
Maximum Humidity 83    
Minimum Humidity 11    
Precipitation  
Precipitation 0.00 in - - ()
Sea Level Pressure  
Sea Level Pressure 29.81 in    
Wind  
Wind Speed 6 mph ()    
Max Wind Speed 15 mph    
Max Gust Speed -    
T = Trace of Precipitation, MM = Missing Value Source: Averaged Metar Reports

Daily Weather History Graph

Daily Weather History Graph

Search for Another Location

Airport or City:

Trip Planner

Search our weather history database for the weather conditions in past years. The results will help you decide how hot, cold, wet, or windy it might be!

Date:

Astronomy

Oct. 20, 2013 Rise Set
Actual Time 5:12 AM AWST 5:46 PM AWST
Civil Twilight 4:50 AM AWST 6:08 PM AWST
Nautical Twilight 4:24 AM AWST 6:34 PM AWST
Astronomical Twilight 3:58 AM AWST 7:00 PM AWST
Moon 6:58 PM AWST (10/20) 5:53 AM AWST (10/20)
Length of Visible Light 13h 17m
Length of Day
12h 33m
Full, 98% of the Moon is Illuminated
Oct 20
Full
Oct 27
Last Quarter
Nov 3
New
Nov 10
First Quarter
Nov 17
Full

Hourly Weather History & Observations

Time (AWST) Temp. Heat Index Dew Point Humidity Pressure Visibility Wind Dir Wind Speed Gust Speed Precip Events Conditions
12:00 AM 80.6 °F 85.4 °F 73.4 °F 79% 29.83 in - NW 5.8 mph - N/A   Unknown
1:00 AM 80.6 °F 85.4 °F 73.4 °F 79% 29.83 in - WNW 4.6 mph - N/A   Unknown
2:00 AM 80.6 °F 85.4 °F 73.4 °F 79% 29.80 in - West 4.6 mph - N/A   Unknown
3:00 AM 79 °F - 74 °F 79% 29.81 in - WNW 4.6 mph - -  
3:00 AM 78.8 °F - 73.4 °F 83% 29.80 in - WNW 4.6 mph - N/A   Unknown
4:00 AM 78.8 °F - 71.6 °F 78% 29.83 in - West 4.6 mph - N/A   Unknown
5:00 AM 75.2 °F - 69.8 °F 83% 29.83 in - Calm Calm - N/A   Unknown
6:00 AM 79 °F - 71 °F 72% 29.87 in - SE 4.6 mph - -  
6:00 AM 78.8 °F - 71.6 °F 78% 29.86 in - SE 4.6 mph - N/A   Unknown
7:00 AM 84.2 °F 87.3 °F 68.0 °F 58% 29.89 in - South 9.2 mph - N/A   Unknown
8:00 AM 89.6 °F 88.9 °F 59.0 °F 36% 29.89 in - SSW 10.4 mph - N/A   Unknown
9:00 AM 93 °F - 60 °F 23% 29.89 in - WSW 6.9 mph - -  
9:00 AM 93.2 °F 92.6 °F 59.0 °F 32% 29.89 in - WSW 6.9 mph - N/A   Unknown
10:00 AM 95.0 °F 93.7 °F 57.2 °F 28% 29.86 in - WSW 8.1 mph - N/A   Unknown
11:00 AM 98.6 °F 98.5 °F 59.0 °F 27% 29.83 in - SSW 10.4 mph - N/A   Unknown
12:00 PM 101 °F - 58 °F 16% 29.81 in - West 9.2 mph - -  
12:00 PM 100.4 °F 100.2 °F 59.0 °F 25% 29.80 in - West 9.2 mph - N/A   Unknown
1:00 PM 100.4 °F 98.8 °F 55.4 °F 22% 29.77 in - SW 12.7 mph - N/A   Scattered Clouds
2:00 PM 104.0 °F - 51.8 °F 17% 29.74 in - SW 11.5 mph - N/A   Unknown
3:00 PM 104 °F - 54 °F 11% 29.71 in - West 8.1 mph - -  
3:00 PM 104.0 °F 102.3 °F 53.6 °F 19% 29.71 in - West 8.1 mph - N/A   Scattered Clouds
4:00 PM 100.4 °F 101.3 °F 60.8 °F 27% 29.71 in - WNW 15.0 mph - N/A   Unknown
5:00 PM 95.0 °F 97.0 °F 64.4 °F 36% 29.74 in - NW 11.5 mph - N/A   Unknown
6:00 PM 91 °F - 69 °F 40% 29.76 in - NW 9.2 mph - -  
6:00 PM 91.4 °F 96.8 °F 69.8 °F 49% 29.77 in - NW 9.2 mph - N/A   Unknown
7:00 PM 89.6 °F 93.4 °F 68.0 °F 49% 29.80 in - NNW 5.8 mph - N/A   Mostly Cloudy
8:00 PM 84.2 °F 86.6 °F 66.2 °F 55% 29.80 in - NNE 4.6 mph - N/A   Unknown
9:00 PM 83 °F - 69 °F 53% 29.81 in - North 5.8 mph - -  
9:00 PM 84.2 °F 87.3 °F 68.0 °F 58% 29.83 in - North 5.8 mph - N/A   Unknown
10:00 PM 80.6 °F 83.2 °F 68.0 °F 65% 29.80 in - WNW 4.6 mph - N/A   Scattered Clouds
11:00 PM 80.6 °F 82.3 °F 64.4 °F 58% 29.80 in - West 4.6 mph - N/A   Scattered Clouds